Terug naar catalogus

STARLINK-36146

ActiefCommunicatieVLEO
NORAD 67426·PAYLOAD·🇺🇸 United States

Gelanceerd Jan 12, 2026 vanaf Cape Canaveral Space Force Station

Loading…

Volgende Passages (komende 24 uur)

TLE

VersSource: CelesTrak SupGP

Epoch: Sep 15, 2026, 03:01 UTC

1 67426C 26005Y   26258.12618056 -.00028737  00000+0 -10409-2 0  2582
2 67426  42.9996 248.5364 0001419 266.9262  99.4766 15.27590916    13

Volg STARLINK-36146 in realtime met AllMySat

Download on the App Store